Tracking 23446 objects as of 19-Jun-2021
HD Live streaming from Space Station
objects crossing your sky now

ONEWEB-0223

Track ONEWEB-0223 now!
10-day predictions
ONEWEB-0223 is classified as:


NORAD ID: 48768
Int'l Code: 2021-045B
Perigee: 442.0 km
Apogee: 457.5 km
Inclination: 87.4 °
Period: 93.4 minutes
Semi major axis: 6820 km
RCS: Unknown
Launch date: May 28, 2021
Source: United Kingdom (UK)
Launch site: VOSTOCHNY COSMODROME (VOSTO)
aabbcc
Your satellite tracking list
Your tracking list is empty




NASA's NSSDC Master Catalog

Two Line Element Set (TLE):
1 48768U 21045B   21169.75001157 -.00936144  00000-0 -24588-1 0  9997
2 48768  87.4016 269.1309 0011324 164.6672 210.5182 15.41181857  1915
Source of the keplerian elements: AFSPC